Voltar ao catálogo

SCOUT X-4 DEB

AtivoLEO
NORAD 2011·DEBRIS·🇺🇸 United States

Lançado Apr 29, 1965 de Wallops Flight Facility

Loading…

Próximas Passagens (próximas 24 horas)

TLE

AtualizadoSource: Space-Track

Época: Sep 14, 2026, 15:20 UTC

1 02011U 65032D   26257.63909675  .00001308  00000-0  21738-2 0  9992
2 02011  41.1972  97.5380 0219504  45.6173   2.8825 13.41107927989331

Acompanhe SCOUT X-4 DEB em tempo real com AllMySat

Download on the App Store